Have a Safe July 4th! 

Flight Track Log - Related Links

Times and Time Zones

All times are in EDT time to prevent confusion due to time zone crossing. See the N825TB flight status page for this flight to view local times or setup timezone preferences in your user account.

Time Position Orientation Groundspeed Altitude Reporting Facility
EDT Latitude Longitude Course Direction KTS MPH feet Rate Location/Type
Fri 10:05:13 AM 34.7659 -81.7475 58° Northeast 499 574 37,700  Level FlightAware ADS-B
Fri 10:05:15 AM 34.7678 -81.7437 59° Northeast 499 574 37,700 1,200 Level FlightAware ADS-B
Fri 10:05:18 AM 34.7722 -81.7351 58° Northeast 499 574 37,800 2,400 Climbing FlightAware ADS-B
Fri 10:05:20 AM 34.7736 -81.7322 60° Northeast 499 574 37,900 2,000 Climbing FlightAware ADS-B
Fri 10:05:21 AM 34.7743 -81.7308 59° Northeast 499 574 37,900  Level FlightAware ADS-B
Fri 10:05:22 AM 34.7751 -81.7294 55° Northeast 500 575 37,900  Level FlightAware ADS-B
Fri 10:05:23 AM 34.7763 -81.7270 59° Northeast 500 575 37,900  Level FlightAware ADS-B
Fri 10:05:24 AM 34.7777 -81.7241 60° Northeast 499 574 37,900 3,000 Level FlightAware ADS-B
Fri 10:05:25 AM 34.7787 -81.7222 57° Northeast 499 574 38,000 2,000 Climbing FlightAware ADS-B
Fri 10:05:27 AM 34.7820 -81.7155 59° Northeast 499 574 38,000  Level FlightAware ADS-B
Fri 10:05:28 AM 34.7828 -81.7141 55° Northeast 500 575 38,000  Level FlightAware ADS-B
Fri 10:05:29 AM 34.7833 -81.7131 59° Northeast 500 575 38,000 3,000 Level FlightAware ADS-B
Fri 10:05:30 AM 34.7854 -81.7088 59° Northeast 500 575 38,100 3,000 Climbing FlightAware ADS-B
Fri 10:05:31 AM 34.7871 -81.7054 59° Northeast 500 575 38,100  Level FlightAware ADS-B
Fri 10:05:32 AM 34.7878 -81.7040 59° Northeast 500 575 38,100  Level FlightAware ADS-B
Fri 10:05:33 AM 34.7883 -81.7031 56° Northeast 500 575 38,100 3,000 Level FlightAware ADS-B
Fri 10:05:34 AM 34.7895 -81.7007 59° Northeast 500 575 38,200 1,200 Climbing FlightAware ADS-B
Fri 10:05:38 AM 34.7953 -81.6892 58° Northeast 500 575 38,200 1,200 Level FlightAware ADS-B
Fri 10:05:39 AM 34.7965 -81.6868 59° Northeast 500 575 38,300 3,000 Climbing FlightAware ADS-B
Fri 10:05:40 AM 34.7977 -81.6844 59° Northeast 500 575 38,300  Level FlightAware ADS-B
Fri 10:05:42 AM 34.8001 -81.6796 59° Northeast 500 575 38,300  Level FlightAware ADS-B
Fri 10:05:43 AM 34.8008 -81.6781 60° Northeast 500 575 38,300 3,000 Level FlightAware ADS-B
Fri 10:05:44 AM 34.8025 -81.6748 58° Northeast 500 575 38,400 3,000 Climbing FlightAware ADS-B
Fri 10:05:45 AM 34.8035 -81.6729 57° Northeast 500 575 38,400  Level FlightAware ADS-B
Fri 10:05:46 AM 34.8040 -81.6719 59° Northeast 500 575 38,400  Level FlightAware ADS-B
Fri 10:05:47 AM 34.8059 -81.6681 59° Northeast 500 575 38,400  Level FlightAware ADS-B
Fri 10:05:48 AM 34.8072 -81.6657 57° Northeast 500 575 38,400 1,391 Level FlightAware ADS-B
Fri 10:06:56 AM 34.8886 -81.5050 58° Northeast 495 570 40,000 1,391 Climbing FlightAware ADS-B
Fri 10:06:57 AM 34.8898 -81.5026 59° Northeast 495 570 40,000 3,000 Level FlightAware ADS-B
Fri 10:06:58 AM 34.8923 -81.4979 57° Northeast 495 570 40,100 2,000 Climbing FlightAware ADS-B
Fri 10:07:00 AM 34.8923 -81.4979 57° Northeast 494 568 40,100 2,000 Level FlightAware ADS-B
Fri 10:07:01 AM 34.8956 -81.4913 59° Northeast 494 568 40,200 3,000 Climbing FlightAware ADS-B
Fri 10:07:02 AM 34.8963 -81.4899 59° Northeast 494 568 40,200  Level FlightAware ADS-B
Fri 10:07:03 AM 34.8987 -81.4851 59° Northeast 494 568 40,200  Level FlightAware ADS-B
Fri 10:07:22 AM 34.8987 -81.4851 59° Northeast 490 564 40,200 1,500 Level FlightAware ADS-B
Fri 10:07:27 AM 34.9267 -81.4297 58° Northeast 490 564 40,800 6,000 Climbing FlightAware ADS-B
Fri 10:07:28 AM 34.9279 -81.4273 59° Northeast 490 564 40,800  Level FlightAware ADS-B
Fri 10:07:29 AM 34.9279 -81.4273 59° Northeast 488 562 40,800 2,000 Level FlightAware ADS-B
Fri 10:07:34 AM 34.9357 -81.4119 58° Northeast 488 562 41,000 2,000 Climbing FlightAware ADS-B
Fri 10:07:35 AM 34.9357 -81.4119 58° Northeast 487 560 41,000 1,000 Level FlightAware ADS-B
Fri 10:07:40 AM 34.9418 -81.3998 58° Northeast 487 560 41,100 2,000 Climbing FlightAware ADS-B
Fri 10:07:41 AM 34.9430 -81.3975 58° Northeast 486 559 41,200 2,000 Climbing FlightAware ADS-B
Fri 10:07:43 AM 34.9463 -81.3909 59° Northeast 486 559 41,200  Level FlightAware ADS-B
Fri 10:07:50 AM 34.9463 -81.3909 59° Northeast 485 558 41,200 1,500 Level FlightAware ADS-B
Fri 10:07:51 AM 34.9543 -81.3752 58° Northeast 485 558 41,400 6,000 Climbing FlightAware ADS-B
Fri 10:07:52 AM 34.9568 -81.3700 60° Northeast 485 558 41,400  Level FlightAware ADS-B
Fri 10:07:54 AM 34.9592 -81.3654 58° Northeast 485 558 41,400 2,000 Level FlightAware ADS-B
Fri 10:07:55 AM 34.9596 -81.3645 62° Northeast 485 558 41,500 3,000 Climbing FlightAware ADS-B
Fri 10:07:56 AM 34.9596 -81.3645 62° Northeast 484 557 41,500  Level FlightAware ADS-B
Fri 10:07:57 AM 34.9620 -81.3598 58° Northeast 484 557 41,500  Level FlightAware ADS-B
Fri 10:07:59 AM 34.9641 -81.3556 59° Northeast 484 557 41,500 1,043 Level FlightAware ADS-B
Fri 10:09:06 AM 35.0408 -81.2016 59° Northeast 482 555 42,700 1,059 Climbing FlightAware ADS-B
Fri 10:09:07 AM 35.0420 -81.1993 57° Northeast 482 555 42,700  Level FlightAware ADS-B
Fri 10:09:13 AM 35.0420 -81.1993 57° Northeast 481 554 42,700 1,500 Level FlightAware ADS-B
Fri 10:09:15 AM 35.0505 -81.1820 59° Northeast 481 554 42,900 2,182 Climbing FlightAware ADS-B
Fri 10:09:24 AM 35.0631 -81.1565 59° Northeast 481 554 43,100 1,200 Climbing FlightAware ADS-B
Fri 10:09:25 AM 35.0642 -81.1542 60° Northeast 481 554 43,100  Level FlightAware ADS-B
Fri 10:09:28 AM 35.0677 -81.1473 58° Northeast 481 554 43,100 857 Level FlightAware ADS-B
Fri 10:09:32 AM 35.0723 -81.1380 59° Northeast 481 554 43,200 1,200 Climbing FlightAware ADS-B
Fri 10:09:33 AM 35.0728 -81.1371 56° Northeast 481 554 43,200  Level FlightAware ADS-B
Fri 10:09:34 AM 35.0739 -81.1348 60° Northeast 481 554 43,200  Level FlightAware ADS-B
Fri 10:09:35 AM 35.0739 -81.1348 60° Northeast 480 552 43,200  Level FlightAware ADS-B
Fri 10:09:36 AM 35.0758 -81.1311 58° Northeast 480 552 43,200  Level FlightAware ADS-B
Fri 10:09:37 AM 35.0764 -81.1297 62° Northeast 480 552 43,200 3,000 Level FlightAware ADS-B
Fri 10:09:38 AM 35.0780 -81.1265 59° Northeast 480 552 43,300 3,000 Climbing FlightAware ADS-B
Fri 10:09:39 AM 35.0797 -81.1232 58° Northeast 480 552 43,300  Level FlightAware ADS-B
Fri 10:09:40 AM 35.0804 -81.1218 59° Northeast 480 552 43,300  Level FlightAware ADS-B
Fri 10:09:41 AM 35.0815 -81.1195 60° Northeast 480 552 43,300  Level FlightAware ADS-B
Fri 10:09:42 AM 35.0831 -81.1163 59° Northeast 480 552 43,300  Level FlightAware ADS-B
Fri 10:09:43 AM 35.0845 -81.1135 59° Northeast 480 552 43,300  Level FlightAware ADS-B
Fri 10:09:44 AM 35.0852 -81.1121 59° Northeast 480 552 43,300 3,000 Level FlightAware ADS-B
Fri 10:09:45 AM 35.0863 -81.1098 60° Northeast 480 552 43,400 3,000 Climbing FlightAware ADS-B
Fri 10:09:46 AM 35.0874 -81.1075 60° Northeast 480 552 43,400  Level FlightAware ADS-B
Fri 10:09:52 AM 35.0874 -81.1075 60° Northeast 479 551 43,400 857 Level FlightAware ADS-B
Fri 10:09:53 AM 35.0955 -81.0913 59° Northeast 479 551 43,500 2,400 Climbing FlightAware ADS-B
Fri 10:09:57 AM 35.1003 -81.0816 59° Northeast 479 551 43,600 1,200 Climbing FlightAware ADS-B
Fri 10:09:58 AM 35.1014 -81.0793 60° Northeast 479 551 43,600  Level FlightAware ADS-B
Fri 10:09:59 AM 35.1026 -81.0770 57° Northeast 479 551 43,600  Level FlightAware ADS-B
Fri 10:10:00 AM 35.1026 -81.0770 57° Northeast 478 550 43,600  Level FlightAware ADS-B
Fri 10:10:01 AM 35.1026 -81.0770 57° Northeast 479 551 43,600  Level FlightAware ADS-B
Fri 10:10:02 AM 35.1060 -81.0701 59° Northeast 479 551 43,600 3,000 Level FlightAware ADS-B
Fri 10:10:03 AM 35.1071 -81.0678 60° Northeast 479 551 43,700 2,000 Climbing FlightAware ADS-B
Fri 10:10:05 AM 35.1071 -81.0678 60° Northeast 478 550 43,700  Level FlightAware ADS-B
Fri 10:10:07 AM 35.1123 -81.0571 59° Northeast 478 550 43,700 417 Level FlightAware ADS-B
Fri 10:11:17 AM 35.1757 -80.9283 59° Northeast 483 556 44,200 553 Climbing FlightAware ADS-B
Fri 10:11:23 AM 35.1988 -80.8810 59° Northeast 483 556 44,400 1,000 Climbing FlightAware ADS-B
Fri 10:11:29 AM 35.1988 -80.8810 59° Northeast 484 557 44,400  Level FlightAware ADS-B
Fri 10:11:30 AM 35.2076 -80.8632 59° Northeast 484 557 44,400 750 Level FlightAware ADS-B
Fri 10:11:37 AM 35.2147 -80.8487 59° Northeast 484 557 44,500 750 Climbing FlightAware ADS-B
Fri 10:11:38 AM 35.2154 -80.8473 59° Northeast 484 557 44,500  Level FlightAware ADS-B
Fri 10:11:39 AM 35.2177 -80.8427 59° Northeast 484 557 44,500  Level FlightAware ADS-B
Fri 10:11:40 AM 35.2189 -80.8403 59° Northeast 484 557 44,500  Level FlightAware ADS-B
Fri 10:11:43 AM 35.2189 -80.8403 59° Northeast 483 556 44,500  Level FlightAware ADS-B
Fri 10:11:44 AM 35.2228 -80.8324 59° Northeast 483 556 44,500 2,000 Level FlightAware ADS-B
Fri 10:11:46 AM 35.2251 -80.8276 60° Northeast 483 556 44,600 2,000 Climbing FlightAware ADS-B
Fri 10:11:47 AM 35.2258 -80.8262 59° Northeast 483 556 44,600  Level FlightAware ADS-B
Fri 10:11:48 AM 35.2269 -80.8239 60° Northeast 484 557 44,600  Level FlightAware ADS-B
Fri 10:11:49 AM 35.2287 -80.8201 60° Northeast 484 557 44,600  Level FlightAware ADS-B
Fri 10:11:58 AM 35.2287 -80.8201 60° Northeast 485 558 44,600 600 Level FlightAware ADS-B
Fri 10:11:59 AM 35.2391 -80.7990 59° Northeast 485 558 44,700 3,000 Climbing FlightAware ADS-B
Fri 10:12:00 AM 35.2409 -80.7953 59° Northeast 485 558 44,700  Level FlightAware ADS-B
Fri 10:12:03 AM 35.2446 -80.7877 59° Northeast 485 558 44,700  Level FlightAware ADS-B
Fri 10:12:04 AM 35.2448 -80.7873 59° Northeast 485 558 44,700  Level FlightAware ADS-B
Fri 10:12:05 AM 35.2460 -80.7849 59° Northeast 485 558 44,700  Level FlightAware ADS-B
Fri 10:12:06 AM 35.2471 -80.7826 60° Northeast 485 558 44,700  Level FlightAware ADS-B
Fri 10:12:07 AM 35.2471 -80.7826 60° Northeast 486 559 44,700 3,000 Level FlightAware ADS-B
Fri 10:12:08 AM 35.2512 -80.7741 59° Northeast 486 559 44,800 3,000 Climbing FlightAware ADS-B
Fri 10:12:09 AM 35.2517 -80.7731 59° Northeast 486 559 44,800  Level FlightAware ADS-B
Fri 10:12:10 AM 35.2524 -80.7718 57° Northeast 486 559 44,800  Level FlightAware ADS-B
Fri 10:12:11 AM 35.2528 -80.7708 64° Northeast 486 559 44,800  Level FlightAware ADS-B
Fri 10:12:12 AM 35.2540 -80.7685 57° Northeast 486 559 44,800  Level FlightAware ADS-B
Fri 10:12:13 AM 35.2559 -80.7647 59° Northeast 486 559 44,800  Level FlightAware ADS-B
Fri 10:12:14 AM 35.2570 -80.7623 61° Northeast 486 559 44,800  Level FlightAware ADS-B
Fri 10:12:15 AM 35.2575 -80.7614 56° Northeast 486 559 44,800  Level FlightAware ADS-B
Fri 10:12:16 AM 35.2586 -80.7590 61° Northeast 486 559 44,800  Level FlightAware ADS-B
Fri 10:12:17 AM 35.2596 -80.7572 56° Northeast 486 559 44,800  Level FlightAware ADS-B
Fri 10:12:18 AM 35.2614 -80.7534 60° Northeast 486 559 44,800  Level FlightAware ADS-B
Fri 10:12:19 AM 35.2632 -80.7496 60° Northeast 486 559 44,800  Level FlightAware ADS-B
Fri 10:12:20 AM 35.2637 -80.7487 56° Northeast 486 559 44,800  Level FlightAware ADS-B
Fri 10:12:21 AM 35.2649 -80.7463 59° Northeast 486 559 44,800 179 Level FlightAware ADS-B
Fri 10:13:27 AM 35.3369 -80.5993 59° Northeast 489 563 45,000 179 Climbing FlightAware ADS-B
Fri 10:13:28 AM 35.3432 -80.5865 59° Northeast 489 563 45,000  Level FlightAware ADS-B
Fri 10:13:31 AM 35.3467 -80.5793 59° Northeast 489 563 45,000  Level FlightAware ADS-B
Fri 10:13:37 AM 35.3537 -80.5651 59° Northeast 489 563 45,000  Level FlightAware ADS-B
Fri 10:13:38 AM 35.3551 -80.5623 58° Northeast 489 563 45,000  Level FlightAware ADS-B
Fri 10:13:52 AM 35.3708 -80.5300 59° Northeast 489 563 45,000  Level FlightAware ADS-B
Fri 10:14:03 AM 35.3708 -80.5300 59° Northeast 486 559 45,000  Level FlightAware ADS-B
Fri 10:14:04 AM 35.3847 -80.5017 59° Northeast 486 559 45,000  Level FlightAware ADS-B
Fri 10:14:06 AM 35.3872 -80.4965 59° Northeast 486 559 45,000  Level FlightAware ADS-B
Fri 10:14:17 AM 35.3872 -80.4965 59° Northeast 485 558 45,000  Level FlightAware ADS-B
Fri 10:16:00 AM 35.7176 -80.0709 46° Northeast  Level Estimated
Fri 10:17:00 AM 35.9094 -79.8214 46° Northeast  Level Estimated
Fri 10:18:00 AM 36.1007 -79.5707 47° Northeast  Level Estimated
Fri 10:19:00 AM 36.2914 -79.3187 47° Northeast  Level Estimated
Fri 10:20:00 AM 36.4816 -79.0655 47° Northeast  Level Estimated
Fri 10:21:00 AM 36.6712 -78.8111 47° Northeast  Level Estimated
Fri 10:22:00 AM 36.8604 -78.5554 47° Northeast  Level Estimated
Fri 10:23:00 AM 37.0489 -78.2984 47° Northeast  Level Estimated
Fri 10:24:00 AM 37.2369 -78.0402 48° Northeast  Level Estimated
Fri 10:25:00 AM 37.4244 -77.7806 48° Northeast  Level Estimated
Fri 10:26:00 AM 37.6113 -77.5198 48° Northeast  Level Estimated
Fri 10:27:00 AM 37.7976 -77.2577 48° Northeast  Level Estimated
Fri 10:28:00 AM 37.9833 -76.9942 48° Northeast  Level Estimated
Fri 10:29:00 AM 38.1684 -76.7294 48° Northeast  Level Estimated
Fri 10:30:00 AM 38.3530 -76.4632 48° Northeast  Level Estimated
Fri 10:31:00 AM 38.5369 -76.1957 49° Northeast  Level Estimated
Fri 10:32:00 AM 38.7202 -75.9268 49° Northeast  Level Estimated
Fri 10:33:00 AM 38.9029 -75.6566 49° Northeast  Level Estimated
Fri 10:34:00 AM 39.0849 -75.3849 49° Northeast  Level Estimated
Fri 10:35:00 AM 39.2664 -75.1119 49° Northeast  Level Estimated
Fri 10:36:00 AM 39.4472 -74.8374 49° Northeast  Level Estimated
Fri 10:37:00 AM 39.6273 -74.5615 50° Northeast  Level Estimated
Fri 10:38:00 AM 39.8068 -74.2842 50° Northeast  Level Estimated
Fri 10:39:00 AM 39.9856 -74.0054 50° Northeast  Level Estimated
Fri 10:40:00 AM 40.1638 -73.7252 50° Northeast  Level Estimated
Fri 10:41:00 AM 40.3413 -73.4435 50° Northeast  Level Estimated
Fri 10:42:00 AM 40.5181 -73.1603 51° Northeast  Level Estimated
Fri 10:43:00 AM 40.6941 -72.8756 51° Northeast  Level Estimated
Fri 10:44:00 AM 40.8437 -72.6318 51° Northeast  Level Estimated
Fri 10:45:00 AM 40.8437 -72.6318 153° Southeast  Level Estimated
Fri 10:46:00 AM 40.8437 -72.6318 153° Southeast  Level Estimated
Fri 10:47:00 AM 40.8437 -72.6318 153° Southeast  Level Estimated
Fri 10:48:00 AM 40.8437 -72.6318 153° Southeast  Level Estimated
Fri 10:49:00 AM 40.8437 -72.6318 153° Southeast  Level Estimated
Fri 10:50:00 AM 40.8437 -72.6318 153° Southeast  Level Estimated
Fri 10:51:00 AM 40.8437 -72.6318 153° Southeast  Level Estimated
Fri 10:52:00 AM 40.8437 -72.6318 153° Southeast  Level Estimated
Fri 10:53:00 AM 40.8437 -72.6318 153° Southeast  Level Estimated
Fri 10:54:00 AM 40.8437 -72.6318 153° Southeast  Level Estimated
Fri 10:55:00 AM 40.8437 -72.6318 153° Southeast  Level Estimated
Fri 10:56:00 AM 40.8437 -72.6318 153° Southeast  Level Estimated
Fri 10:57:00 AM 40.8437 -72.6318 153° Southeast  Level Estimated
Fri 10:58:00 AM 40.8437 -72.6318 153° Southeast  Level Estimated
Fri 10:59:00 AM 40.8437 -72.6318 153° Southeast  Level Estimated
Fri 11:00:00 AM 40.8437 -72.6318 153° Southeast  Level Estimated
Fri 11:01:00 AM 40.8437 -72.6318 153° Southeast  Level Estimated
Fri 11:02:00 AM 40.8437 -72.6318 153° Southeast  Level Estimated
Fri 11:03:00 AM 40.8437 -72.6318 153° Southeast  Level Estimated
Fri 11:04:00 AM 40.8437 -72.6318 153° Southeast  Level Estimated

Login

Don't have an account? Register now (free) for customized features, flight alerts, and more!